Flag for Afghanistan Weather past 2 weeks in Jalalabad, Afghanistan

Now
91 °F

Hot.


Feels Like: 100 °F
Forecast: 62 / 94 °F
Wind: N/A

Location: Peshawar Airport

Current Time: Sep 30, 2014 at 2:37:32 PM

Latest Report: Sep 30, 2014 at 1:30 PM


Visibility: N/A

Pressure: 29.80 "Hg

Humidity: 56%

Dew point: 73 °F

Location of JalalabadLocation

Historic Weather in Jalalabad — Graph

°F

Jalalabad temperature yesterday

Maximum temperature yesterday: 93 °F (at 12:30 PM)
Minimum temperature yesterday: 77 °F (at 2:30 AM)
Average temperature yesterday: 83 °F

Past Weeks' High & Low Weather Summary

 TemperatureHumidityPressure
High99 °F (Sep 20, 2:30 PM)79% (Sep 18, 4:30 AM)29.92 "Hg (Sep 18, 4:30 AM)
Low73 °F (Sep 28, 12:30 AM)35% (Sep 20, 3:30 PM)29.56 "Hg (Sep 17, 2:30 PM)
Average85 °F59%29.73 "Hg
* Reported Sep 15 1:30 PM — Sep 30 1:30 PM, Jalalabad, Weather by CustomWeather, © 2014

Note: Actual official high and low records may vary slightly from our data, if they occured in-between our weather recording intervals... More about our weather records

Advertising

Jalalabad weather history for previous 24 hours

 ConditionsComfort  
Time TempWeatherWind HumidityBarometerVisibility
1:30 PM
Sep 30
91 °FHot.N/A56%29.80 "HgN/A
12:30 PM91 °FHot.N/A56%29.83 "HgN/A
11:30 AM90 °FHot.N/A59%29.86 "HgN/A
10:30 AM88 °FWarm.N/A59%29.86 "HgN/A
9:30 AM86 °FWarm.N/A62%29.89 "HgN/A
8:30 AM82 °FWarm.N/A66%29.86 "HgN/A
7:30 AM81 °FWarm.N/A66%29.86 "HgN/A
6:30 AM77 °FScattered clouds.7 mph74%29.86 "Hg2 mi
5:30 AM77 °FPassing clouds.5 mph74%29.83 "Hg2 mi
4:30 AM77 °FHaze.5 mph69%29.83 "Hg2 mi
2:30 AM79 °FWarm.N/A70%29.80 "HgN/A
1:30 AM79 °FWarm.N/A70%29.80 "HgN/A
12:30 AM79 °FWarm.N/A70%29.80 "HgN/A
11:30 PM
Sep 29
81 °FWarm.N/A66%29.80 "HgN/A
10:30 PM82 °FPassing clouds.7 mph66%29.83 "Hg2 mi
9:30 PM82 °FWarm.N/A58%29.83 "HgN/A
8:30 PM84 °FPassing clouds.7 mph55%29.83 "Hg2 mi
7:30 PM84 °FWarm.N/A58%29.80 "HgN/A
6:30 PM86 °FWarm.N/A55%29.77 "HgN/A
5:30 PM88 °FWarm.N/A55%29.77 "HgN/A
4:30 PM90 °FHot.N/A49%29.77 "HgN/A
2:30 PM93 °FHaze.9 mph47%29.77 "Hg2 mi
Weather by CustomWeather, © 2014

See weather overviewHow to use our weather pages